[[{"header":{"parameterUnit":"m.s-1","parameterCategory":1,"la1":30.2991,"la2":30.254,"lo1":-89.0895,"lo2":-89.0444,"dy":0.0017,"dx":0.0017,"nx":28,"ny":28,"refTime":"2025-02-03T03:00:00:Z","depth":0,"parameterNumber":2,"parameterNumberName":"U-component_of_WINDS"},"data":[0,0,0,0,0,0,0,0,0,0,0,0,0,0,0,0,0,0,0,0,0,0,0,0,0,0,0,0,0,0,0,0,0,0,0,0,0,0,0,0,0,0,0,0,0,0,0,0,0,0,0,0,0,0,0,0,0,0,-0.3685,-0.3685,0,-0.3677,-0.3677,-0.3677,-0.367,-0.367,-0.367,-0.367,-0.3663,-0.3663,-0.3662,0,0,0,0,0,0,0,0,0,0,0,0,0,-0.3696,-0.3695,-0.3685,-0.3685,-0.3685,-0.3677,-0.3677,-0.3677,-0.367,-0.367,-0.367,-0.367,-0.3663,-0.3663,-0.3662,0,0,0,0,0,0,0,0,0,0,0,0,0,-0.369,-0.3695,-0.3685,-0.3681,-0.368,-0.3677,-0.3677,-0.3677,-0.367,-0.367,-0.367,-0.367,-0.3663,-0.3663,-0.3662,-0.3663,0,0,-0.3662,-0.3662,0,0,0,0,0,0,0,0,-0.369,-0.3689,-0.3681,-0.3681,-0.368,-0.3675,-0.3678,-0.3672,-0.367,-0.3674,-0.367,-0.367,-0.3667,-0.3666,-0.3665,-0.3663,-0.3663,-0.3662,-0.3662,-0.3662,-0.3662,0,0,0,0,0,0,0,-0.369,-0.369,-0.3682,-0.3681,-0.3681,-0.3679,-0.3678,-0.3677,-0.3671,-0.3674,-0.3673,-0.3672,-0.3667,-0.3665,-0.3665,-0.3662,-0.3662,-0.3662,-0.3662,-0.3661,-0.3661,-0.3661,0,0,0,0,0,0,-0.3691,-0.369,-0.3682,-0.3682,-0.3685,-0.3679,-0.3678,-0.3677,-0.3671,-0.367,-0.3673,-0.3672,-0.3666,-0.3665,-0.3665,-0.3665,-0.3662,-0.3661,-0.3661,-0.3661,-0.3661,-0.3661,0,0,0,0,0,0,-0.3692,-0.3691,-0.3682,-0.3686,-0.3684,-0.3679,-0.3677,-0.3676,-0.3675,-0.367,-0.3669,-0.3672,-0.3666,-0.3665,-0.3664,-0.3665,-0.3661,-0.3661,-0.3661,-0.3661,-0.3661,-0.3667,0,0,0,0,0,0,-0.3692,-0.3691,-0.3691,-0.3686,-0.3684,-0.3681,-0.3677,-0.3676,-0.3675,-0.3674,-0.367,-0.3669,-0.3665,-0.3664,-0.3663,-0.3665,-0.3661,-0.3661,-0.3661,-0.3661,-0.3666,-0.3667,-0.3667,0,0,0,0,0,-0.3692,-0.3693,-0.3691,-0.369,-0.3684,-0.3681,-0.3681,-0.3677,-0.3675,-0.3675,-0.3672,-0.3669,-0.3665,-0.3664,-0.3663,-0.3664,-0.3661,-0.3661,-0.3661,-0.3666,-0.3667,-0.3667,0,0,0,0,0,0,-0.3698,-0.3692,-0.369,-0.3688,-0.3685,-0.368,-0.368,-0.3677,-0.3675,-0.3675,-0.367,-0.3669,-0.3669,-0.3666,-0.3665,-0.3665,-0.3662,-0.3663,-0.3666,-0.3667,-0.3668,-0.3668,-0.3661,0,0,0,0,0,-0.3699,-0.3697,-0.3692,-0.3691,-0.369,-0.3685,-0.3684,-0.3681,-0.3678,-0.3677,-0.3674,-0.3671,-0.3669,-0.3668,-0.3666,-0.3666,-0.3665,-0.3667,-0.3667,-0.3668,-0.3668,-0.3668,-0.3669,-0.3662,-0.3662,-0.3662,0,0,-0.3701,-0.3698,-0.3697,-0.3692,-0.369,-0.3688,-0.3684,-0.3683,-0.3682,-0.3677,-0.3675,-0.3673,-0.367,-0.3669,-0.3669,-0.3667,-0.3669,-0.3668,-0.3668,-0.3668,-0.3668,-0.3669,-0.3669,-0.3662,-0.3662,-0.3662,0,0,-0.3705,-0.3702,-0.3701,-0.3698,-0.3695,-0.3692,-0.3691,-0.3687,-0.3685,-0.3684,-0.368,-0.3679,-0.3676,-0.3674,-0.3672,-0.3675,-0.3673,-0.3675,-0.3678,-0.3678,-0.3679,-0.3679,-0.3681,-0.3681,-0.3675,-0.3675,-0.3675,0,-0.3708,-0.3705,-0.3701,-0.3699,-0.3698,-0.3693,-0.3693,-0.3691,-0.3687,-0.3686,-0.3684,-0.368,-0.3678,-0.3677,-0.3678,-0.3677,-0.3677,-0.3675,-0.3679,-0.3679,-0.368,-0.3681,-0.3681,-0.3675,-0.3675,-0.3675,-0.3675,0,-0.3709,-0.3708,-0.3707,-0.3703,-0.3702,-0.3701,-0.3697,-0.3696,-0.3694,-0.3691,-0.369,-0.3687,-0.3684,-0.3684,-0.3681,-0.3683,-0.3682,-0.368,-0.3677,-0.3681,-0.3682,-0.3682,-0.3676,-0.3676,-0.3676,-0.3676,0,0,-0.3715,-0.3709,-0.3709,-0.3708,-0.3704,-0.3702,-0.3702,-0.3699,-0.3698,-0.3696,-0.3695,-0.3693,-0.3691,-0.3689,-0.3687,-0.3687,-0.369,-0.3685,-0.3685,-0.3686,-0.3692,-0.3693,-0.3694,-0.3688,-0.3688,-0.3689,-0.3692,0,-0.3718,-0.3716,-0.3712,-0.3711,-0.371,-0.3706,-0.3705,-0.3703,-0.3701,-0.3699,-0.3697,-0.3696,-0.3693,-0.3692,-0.3692,-0.369,-0.3691,-0.3689,-0.3688,-0.3688,-0.3689,-0.3694,-0.3696,-0.3699,-0.3692,-0.3692,-0.3692,0,-0.372,-0.3718,-0.3717,-0.3713,-0.3713,-0.3712,-0.371,-0.3708,-0.3706,-0.3704,-0.3703,-0.37,-0.3699,-0.3697,-0.3696,-0.3695,-0.3695,-0.3693,-0.3693,-0.3693,-0.369,-0.3694,-0.37,-0.3701,-0.3693,-0.3693,-0.3693,0,-0.3725,-0.3722,-0.3721,-0.3719,-0.3715,-0.3715,-0.3713,-0.371,-0.3709,-0.3707,-0.3707,-0.3705,-0.3704,-0.3703,-0.37,-0.3698,-0.3699,-0.3697,-0.3698,-0.3698,-0.3698,-0.3698,-0.3704,-0.3698,-0.3698,-0.3698,-0.3698,0,-0.3728,-0.3727,-0.3723,-0.3722,-0.3722,-0.3718,-0.3718,-0.3716,-0.3714,-0.3713,-0.371,-0.3709,-0.3705,-0.3704,-0.3702,-0.3702,-0.3702,-0.37,-0.37,-0.3701,-0.3701,-0.37,-0.37,-0.3698,-0.3698,-0.3698,-0.3698,0,-0.3733,-0.3729,-0.3728,-0.3724,-0.3724,-0.3723,-0.372,-0.372,-0.3718,-0.3717,-0.3716,-0.3713,-0.3712,-0.3709,-0.3707,-0.3705,-0.3706,-0.3705,-0.3707,-0.3706,-0.3708,-0.3708,-0.3714,-0.3714,-0.3708,-0.3708,-0.3708,0,-0.3735,-0.3734,-0.3731,-0.373,-0.3728,-0.3727,-0.3726,-0.3723,-0.3722,-0.3719,-0.3719,-0.3718,-0.3716,-0.3715,-0.3712,-0.3711,-0.371,-0.3712,-0.3709,-0.371,-0.371,-0.371,-0.371,-0.3712,-0.3712,-0.3712,-0.3712,0,-0.3739,-0.3737,-0.3736,-0.3734,-0.3733,-0.3731,-0.3729,-0.3729,-0.3725,-0.3724,-0.3723,-0.3722,-0.372,-0.3719,-0.3717,-0.3716,-0.3714,-0.3713,-0.3714,-0.3714,-0.3715,-0.3715,-0.3708,-0.3713,-0.3713,-0.3713,-0.3713,-0.3713,-0.3742,-0.3742,-0.3739,-0.3738,-0.3736,-0.3735,-0.3734,-0.3732,-0.3731,-0.3729,-0.3727,-0.3726,-0.3724,-0.3722,-0.3721,-0.372,-0.3719,-0.3719,-0.3719,-0.372,-0.372,-0.3716,-0.372,-0.372,-0.372,-0.372,-0.372,0,-0.3746,-0.3744,-0.3743,-0.3741,-0.374,-0.3738,-0.3736,-0.3735,-0.3734,-0.3733,-0.3732,-0.3731,-0.3729,-0.3727,-0.3726,-0.3726,-0.3725,-0.3726,-0.3726,-0.3725,-0.3721,-0.3721,-0.3727,-0.3727,-0.3727,-0.3727,-0.3727,-0.3727,-0.3748,-0.3747,-0.3746,-0.3744,-0.3743,-0.3742,-0.3741,-0.374,-0.3738,-0.3737,-0.3736,-0.3735,-0.3733,-0.3732,-0.3731,-0.373,-0.373,-0.3731,-0.373,-0.3726,-0.3726,-0.3725,-0.3725,-0.3731,-0.3731,-0.3734,-0.3734,-0.3734]},{"header":{"parameterUnit":"m.s-1","parameterCategory":1,"la1":30.2991,"la2":30.254,"lo1":-89.0895,"lo2":-89.0444,"dy":0.0017,"dx":0.0017,"nx":28,"ny":28,"refTime":"2025-02-03T03:00:00:Z","depth":0,"parameterNumber":3,"parameterNumberName":"V-component_of_WINDS"},"data":[0,0,0,0,0,0,0,0,0,0,0,0,0,0,0,0,0,0,0,0,0,0,0,0,0,0,0,0,0,0,0,0,0,0,0,0,0,0,0,0,0,0,0,0,0,0,0,0,0,0,0,0,0,0,0,0,0,0,0.2229,0.2229,0,0.2216,0.2216,0.2216,0.2179,0.2179,0.2178,0.2177,0.2169,0.2169,0.217,0,0,0,0,0,0,0,0,0,0,0,0,0,0.2226,0.2226,0.2229,0.2229,0.2229,0.2216,0.2216,0.2216,0.218,0.2179,0.2178,0.2177,0.2169,0.2169,0.217,0,0,0,0,0,0,0,0,0,0,0,0,0,0.2222,0.2226,0.2229,0.2209,0.2207,0.2217,0.2216,0.2216,0.218,0.2179,0.2177,0.2176,0.2168,0.2169,0.217,0.2199,0,0,0.2172,0.2173,0,0,0,0,0,0,0,0,0.2222,0.2222,0.2212,0.221,0.2208,0.2198,0.2212,0.2211,0.218,0.219,0.2177,0.2176,0.218,0.218,0.218,0.2199,0.2199,0.2172,0.2173,0.2173,0.2174,0,0,0,0,0,0,0,0.2222,0.2222,0.2224,0.2212,0.221,0.2202,0.22,0.2212,0.2192,0.2189,0.2187,0.2185,0.2179,0.2179,0.218,0.2198,0.2172,0.2173,0.2174,0.2174,0.224,0.2242,0,0,0,0,0,0,0.2225,0.2223,0.2225,0.2224,0.2212,0.2203,0.2201,0.2203,0.2192,0.2189,0.2186,0.2184,0.2179,0.2179,0.2179,0.2213,0.2173,0.2174,0.2175,0.2239,0.2241,0.2242,0,0,0,0,0,0,0.2225,0.2225,0.2225,0.2222,0.2222,0.2204,0.2207,0.2203,0.2204,0.219,0.2187,0.2191,0.2178,0.2178,0.2194,0.2212,0.2174,0.2175,0.2238,0.224,0.2241,0.228,0,0,0,0,0,0,0.2225,0.2226,0.2236,0.2223,0.2222,0.224,0.2208,0.2204,0.2205,0.2201,0.2193,0.219,0.2177,0.2193,0.2195,0.2212,0.2176,0.2236,0.2239,0.2241,0.2277,0.2283,0.2288,0,0,0,0,0,0.2225,0.2248,0.2237,0.2237,0.2234,0.2241,0.224,0.2223,0.2206,0.2217,0.2208,0.2191,0.2209,0.2195,0.2197,0.2215,0.2235,0.2238,0.2241,0.2275,0.2282,0.2288,0,0,0,0,0,0,0.2266,0.2246,0.2233,0.2253,0.2248,0.2234,0.2247,0.2231,0.2233,0.2229,0.2209,0.2208,0.2227,0.2222,0.2207,0.2242,0.2219,0.2223,0.2245,0.2252,0.2257,0.2258,0.2176,0,0,0,0,0,0.2277,0.2282,0.2265,0.2285,0.2283,0.2265,0.2268,0.2254,0.225,0.2248,0.224,0.2237,0.2243,0.2247,0.2251,0.2276,0.2274,0.2289,0.2295,0.2299,0.2303,0.2316,0.2323,0.2252,0.2252,0.2251,0,0,0.2301,0.229,0.2295,0.2293,0.2288,0.2295,0.2264,0.2273,0.2279,0.225,0.2264,0.2258,0.2254,0.2275,0.2283,0.2272,0.2322,0.2303,0.2307,0.2308,0.232,0.2326,0.2332,0.2254,0.2253,0.2253,0,0,0.2347,0.234,0.2354,0.2349,0.2341,0.233,0.2333,0.2321,0.2315,0.2329,0.2307,0.2314,0.2323,0.2321,0.2321,0.2365,0.235,0.2367,0.2396,0.2409,0.2415,0.242,0.2436,0.2442,0.237,0.2371,0.2371,0,0.2378,0.2386,0.2365,0.2374,0.2374,0.2346,0.2362,0.2358,0.2353,0.2354,0.234,0.2351,0.2346,0.2365,0.2376,0.2377,0.2381,0.2369,0.2416,0.242,0.2425,0.244,0.2446,0.2373,0.2372,0.2372,0.2372,0,0.2425,0.2431,0.2444,0.2437,0.2438,0.2451,0.2432,0.2436,0.2422,0.2412,0.2426,0.2419,0.2421,0.2425,0.2412,0.2443,0.2435,0.2419,0.2395,0.2434,0.2448,0.2453,0.2376,0.2375,0.2374,0.2374,0,0,0.2498,0.2478,0.2483,0.248,0.2468,0.2473,0.2485,0.2485,0.2488,0.2485,0.2495,0.2503,0.2487,0.2487,0.2474,0.2485,0.2521,0.2467,0.2467,0.2478,0.2554,0.2567,0.2574,0.251,0.2511,0.2511,0.2555,0,0.2543,0.256,0.254,0.2562,0.2568,0.254,0.255,0.2545,0.2536,0.254,0.253,0.2536,0.2514,0.2514,0.2524,0.2514,0.2536,0.2511,0.252,0.252,0.2523,0.2581,0.2595,0.2637,0.256,0.2561,0.2561,0,0.2597,0.2594,0.2616,0.2602,0.2604,0.2613,0.2611,0.2615,0.2609,0.2601,0.26,0.2583,0.2595,0.2571,0.2586,0.257,0.2572,0.2568,0.2569,0.257,0.2544,0.2585,0.2649,0.2656,0.257,0.2569,0.2569,0,0.2649,0.2651,0.2664,0.2662,0.2646,0.2653,0.2647,0.2639,0.264,0.2638,0.2639,0.264,0.264,0.2642,0.2626,0.261,0.2644,0.2619,0.2639,0.2639,0.2648,0.2648,0.2715,0.2649,0.2649,0.2648,0.2648,0,0.2701,0.2716,0.2687,0.2696,0.2711,0.2688,0.2705,0.2696,0.2689,0.2696,0.2673,0.268,0.2658,0.2663,0.2651,0.2666,0.2667,0.2662,0.2658,0.2664,0.2665,0.2666,0.2663,0.265,0.265,0.2649,0.2649,0,0.2763,0.2744,0.2757,0.2739,0.2735,0.2748,0.2734,0.2741,0.2729,0.2738,0.2739,0.2721,0.2726,0.271,0.2713,0.2704,0.2726,0.2718,0.2728,0.2726,0.2747,0.2746,0.2818,0.2827,0.2754,0.2755,0.2756,0,0.2798,0.2808,0.2791,0.2793,0.2788,0.2792,0.2792,0.277,0.2771,0.2764,0.2772,0.2775,0.2775,0.2785,0.2773,0.2775,0.2767,0.2792,0.2767,0.2772,0.2768,0.2768,0.2769,0.2797,0.2798,0.2799,0.28,0,0.2862,0.2852,0.2852,0.2849,0.2849,0.2846,0.2842,0.2845,0.2822,0.2825,0.2828,0.2828,0.283,0.2833,0.2832,0.2827,0.281,0.2807,0.2812,0.2819,0.2824,0.2822,0.2743,0.2806,0.2805,0.2805,0.2805,0.2804,0.2912,0.2919,0.2908,0.2909,0.2903,0.2899,0.2905,0.2893,0.2895,0.2893,0.288,0.2886,0.2879,0.2875,0.2872,0.2877,0.2866,0.2873,0.2875,0.2877,0.2881,0.2822,0.2877,0.2877,0.2877,0.2876,0.2876,0,0.2975,0.2966,0.2967,0.2961,0.2961,0.2943,0.2936,0.2939,0.2944,0.2938,0.2938,0.2942,0.2945,0.2932,0.2933,0.294,0.2932,0.2941,0.2941,0.294,0.2891,0.2887,0.2947,0.2947,0.2947,0.2947,0.2947,0.2947,0.3008,0.302,0.3008,0.3017,0.3008,0.3012,0.301,0.3007,0.3002,0.3006,0.3008,0.2998,0.299,0.299,0.2991,0.2988,0.2989,0.3001,0.2995,0.295,0.2943,0.2937,0.2933,0.3002,0.3002,0.3043,0.3044,0.3044]}]]